Location: Archemont
(49.1579°N, 1.7598°E)
Time: 12:58:21
(UTC+00:00)

S-56A Canister/Altair - Pass Details

Date: 25 April 2024
Orbit: 638 x 2488 km, 38.9° (Epoch: 22 May)

Event Time Altitude Azimuth Distance (km) Brightness Sun altitude
Rises 20:15:05 0° 264° (W) 3,629 11.8 -11.4°
Reaches altitude 10° 20:18:04 10° 248° (WSW) 2,924 10.9 -11.7°
Maximum altitude 20:23:12 21° 203° (SSW) 2,615 10.1 -12.4°
Drops below altitude 10° 20:29:49 10° 160° (SSE) 3,896 10.6 -13.2°
Enters shadow 20:29:52 10° 159° (SSE) 3,909 10.6 -13.3°
Sets 20:34:40 0° 146° (SSE) 5,246 - -13.8°
